Location: Chacón
(10.5789°N, 66.9317°W)
Time: 14:14:30
(UTC+00:00)

FENGYUN 1C DEB - Visible Passes

Search period start: 04 October 2024 00:00
Search period end: 14 October 2024 00:00
Orbit: 710 x 947 km, 98.6° (Epoch: 03 October)

Date Brightness Start Highest point End Pass type
(mag) Time Alt. Az. Time Alt. Az. Time Alt. Az.
04 Oct ? 00:29:45 10° SW 00:31:59 13° WSW 00:34:10 10° WNW visible
04 Oct ? 22:29:50 10° SE 22:33:45 22° ENE 22:37:30 10° NNE visible
05 Oct ? 00:09:54 10° SSW 00:13:46 21° WSW 00:17:31 10° NW visible
05 Oct ? 23:50:52 10° SSW 23:55:33 35° WSW 00:00:01 10° NW visible
06 Oct ? 23:32:15 10° S 23:37:18 60° WSW 23:42:06 10° NNW visible
07 Oct ? 23:13:56 10° SSE 23:19:02 81° ENE 23:23:52 10° N visible
08 Oct ? 22:55:54 10° SSE 23:00:44 47° ENE 23:05:22 10° N visible
09 Oct ? 22:38:13 10° SE 22:42:26 28° ENE 22:46:31 10° NNE visible
10 Oct ? 00:19:27 10° SW 00:22:29 16° WSW 00:25:26 10° WNW visible
10 Oct ? 23:59:58 10° SSW 00:04:10 27° WSW 00:08:13 10° NW visible
11 Oct ? 23:41:04 10° S 23:45:49 45° WSW 23:50:25 10° NNW visible
12 Oct ? 23:22:30 10° S 23:27:28 79° W 23:32:15 10° NNW visible
13 Oct ? 23:04:14 10° SSE 23:09:05 60° ENE 23:13:47 10° N visible
